Total_Precipitation_Accumulation
0.91 1.08 1.58 2.07 2.16 1.51 1.10 0.81 0.55 0.48 0.48 0.34 0.22 0.20 0.30 0.55 0.83 1.04 0.84 0.68 0.47 0.40 0.35 0.47 0.64 0.61 0.53 0.55 0.61 0.70 0.76 0.86 0.74 0.65 0.57 0.50 0.43 0.43 0.42 0.33 0.30 0.32 0.26 0.23 0.29 0.41 0.44 0.48 0.49
0.88 1.60 2.23 2.72 2.13 1.21 1.03 0.78 0.66 0.53 0.36 0.30 0.20 0.18 0.21 0.21 0.20 0.40 0.83 0.91 0.52 0.43 0.40 0.51 0.69 0.65 0.66 0.67 0.70 0.75 0.82 0.91 0.83 0.69 0.57 0.50 0.47 0.46 0.46 0.57 0.60 0.47 0.30 0.26 0.32 0.45 0.46 0.45 0.50
1.08 2.10 2.89 2.60 1.57 1.09 1.14 0.83 0.64 0.44 0.29 0.26 0.21 0.16 0.21 0.26 0.29 0.58 0.92 0.78 0.55 0.45 0.48 0.69 0.82 0.73 0.70 0.74 0.84 0.88 0.93 0.96 0.86 0.69 0.52 0.50 0.56 0.64 0.75 0.79 0.67 0.48 0.38 0.35 0.37 0.46 0.49 0.43 0.40
1.37 2.33 2.44 1.79 1.34 1.06 0.97 0.76 0.52 0.47 0.29 0.16 0.14 0.18 0.20 0.25 0.35 0.62 0.73 0.66 0.58 0.48 0.42 0.56 0.75 0.73 0.74 0.80 0.91 0.90 0.92 0.99 0.94 0.75 0.60 0.56 0.59 0.63 0.72 0.78 0.67 0.52 0.44 0.41 0.45 0.50 0.52 0.48 0.42
1.64 2.11 2.04 1.57 1.27 1.00 0.75 0.61 0.44 0.41 0.28 0.16 0.12 0.25 0.40 0.43 0.41 0.54 0.71 0.72 0.57 0.48 0.41 0.45 0.62 0.63 0.67 0.82 0.94 0.94 0.98 1.01 0.96 0.77 0.68 0.69 0.65 0.64 0.71 0.73 0.69 0.55 0.49 0.48 0.52 0.53 0.55 0.51 0.47
1.84 1.88 1.95 1.73 1.43 1.11 0.78 0.55 0.37 0.34 0.25 0.19 0.18 0.31 0.45 0.55 0.53 0.57 0.58 0.63 0.61 0.59 0.49 0.44 0.59 0.64 0.65 0.73 0.81 0.88 0.94 0.99 0.94 0.76 0.70 0.70 0.70 0.67 0.67 0.71 0.71 0.62 0.62 0.61 0.60 0.56 0.55 0.55 0.50
1.73 1.70 1.66 1.42 1.40 1.34 0.88 0.53 0.42 0.36 0.31 0.25 0.23 0.38 0.46 0.58 0.45 0.58 0.62 0.62 0.69 0.67 0.62 0.54 0.55 0.61 0.72 0.80 0.85 0.87 0.91 0.94 0.98 0.86 0.79 0.77 0.70 0.61 0.58 0.60 0.63 0.65 0.70 0.67 0.62 0.57 0.54 0.54 0.51
1.34 1.30 1.21 1.20 1.25 1.24 0.76 0.41 0.30 0.25 0.24 0.16 0.19 0.36 0.46 0.49 0.43 0.53 0.61 0.62 0.63 0.66 0.65 0.59 0.61 0.69 0.68 0.74 0.93 1.00 1.02 1.06 1.09 0.96 0.84 0.80 0.67 0.58 0.58 0.52 0.56 0.63 0.75 0.81 0.74 0.66 0.61 0.59 0.59
1.29 1.31 1.33 1.43 1.23 0.99 0.57 0.38 0.27 0.20 0.18 0.14 0.13 0.22 0.29 0.35 0.42 0.51 0.62 0.63 0.64 0.61 0.59 0.58 0.62 0.74 0.79 0.76 0.86 1.13 1.17 1.20 1.17 1.04 0.93 0.83 0.64 0.55 0.57 0.54 0.70 0.72 0.75 0.83 0.85 0.83 0.75 0.69 0.62
1.37 1.41 1.46 1.25 0.85 0.70 0.53 0.41 0.29 0.23 0.21 0.18 0.17 0.22 0.31 0.39 0.48 0.54 0.58 0.61 0.62 0.63 0.58 0.56 0.55 0.61 0.69 0.74 0.86 1.02 1.01 1.01 1.00 1.15 1.06 0.93 0.88 0.76 0.49 0.55 0.76 0.89 0.91 0.88 0.84 0.91 0.77 0.62 0.45
1.10 1.08 0.86 0.84 0.65 0.50 0.46 0.35 0.27 0.26 0.27 0.21 0.22 0.25 0.33 0.44 0.52 0.56 0.59 0.58 0.61 0.59 0.54 0.49 0.46 0.45 0.50 0.63 0.80 0.90 1.01 1.11 1.07 1.03 1.03 1.01 0.89 0.70 0.57 0.61 0.63 0.69 0.75 0.68 0.71 0.70 0.53 0.44 0.43
0.98 0.78 0.60 0.59 0.51 0.46 0.42 0.35 0.27 0.25 0.25 0.20 0.20 0.26 0.34 0.41 0.48 0.51 0.53 0.52 0.50 0.51 0.53 0.47 0.38 0.37 0.38 0.46 0.55 0.66 0.80 0.92 0.96 0.81 0.77 0.85 0.87 0.75 0.62 0.62 0.61 0.62 0.66 0.74 0.78 0.76 0.65 0.56 0.50
1.09 0.82 0.64 0.58 0.53 0.48 0.40 0.36 0.28 0.25 0.25 0.24 0.26 0.33 0.36 0.42 0.48 0.51 0.46 0.44 0.42 0.47 0.53 0.50 0.42 0.40 0.38 0.41 0.43 0.44 0.63 0.80 0.91 0.92 0.80 0.77 0.79 0.77 0.70 0.59 0.61 0.56 0.59 0.65 0.69 0.71 0.70 0.71 0.67
0.97 0.80 0.71 0.64 0.53 0.40 0.37 0.33 0.26 0.27 0.27 0.23 0.23 0.30 0.36 0.41 0.45 0.47 0.45 0.43 0.42 0.44 0.53 0.53 0.52 0.51 0.46 0.40 0.40 0.43 0.51 0.63 0.72 0.87 0.88 0.82 0.75 0.71 0.73 0.68 0.69 0.70 0.68 0.68 0.67 0.65 0.75 0.77 0.72
0.71 0.78 0.74 0.60 0.50 0.41 0.37 0.38 0.29 0.33 0.30 0.25 0.23 0.25 0.32 0.35 0.38 0.39 0.39 0.39 0.42 0.43 0.46 0.46 0.47 0.54 0.54 0.52 0.51 0.51 0.59 0.62 0.69 0.76 0.77 0.84 0.74 0.68 0.73 0.76 0.76 0.77 0.78 0.78 0.79 0.78 0.84 0.78 0.76
0.73 0.89 0.95 0.69 0.57 0.54 0.49 0.40 0.30 0.36 0.32 0.30 0.28 0.28 0.27 0.30 0.33 0.35 0.35 0.35 0.38 0.38 0.38 0.43 0.42 0.49 0.57 0.63 0.66 0.70 0.73 0.77 0.84 0.81 0.77 0.77 0.73 0.70 0.79 0.80 0.83 0.89 0.81 0.79 0.85 0.90 0.93 0.89 0.87
0.92 0.87 0.76 0.67 0.54 0.51 0.48 0.35 0.28 0.32 0.30 0.28 0.26 0.26 0.24 0.26 0.30 0.33 0.33 0.33 0.34 0.36 0.37 0.41 0.45 0.50 0.57 0.63 0.73 0.83 0.91 0.99 1.13 1.10 1.05 0.99 0.87 0.88 0.95 0.99 1.00 1.03 1.04 0.96 0.85 0.88 0.94 1.00 0.98
0.91 0.59 0.46 0.42 0.44 0.39 0.37 0.31 0.30 0.31 0.24 0.23 0.23 0.20 0.20 0.23 0.27 0.31 0.32 0.34 0.36 0.35 0.37 0.41 0.48 0.56 0.67 0.84 1.06 1.28 1.36 1.53 1.75 1.69 1.54 1.36 1.19 1.15 1.25 1.23 1.18 1.23 1.31 1.31 1.10 1.13 1.08 1.02 1.06
0.57 0.43 0.35 0.33 0.34 0.31 0.25 0.22 0.19 0.21 0.17 0.17 0.17 0.16 0.16 0.15 0.19 0.22 0.23 0.26 0.25 0.25 0.29 0.36 0.41 0.51 0.62 0.85 1.18 1.62 1.83 1.96 1.98 2.00 1.90 1.69 1.48 1.49 1.64 1.60 1.58 1.57 1.53 1.49 1.43 1.53 1.48 1.22 1.12
0.46 0.38 0.30 0.29 0.27 0.25 0.17 0.14 0.12 0.11 0.09 0.11 0.11 0.12 0.15 0.15 0.14 0.12 0.13 0.15 0.15 0.15 0.17 0.27 0.33 0.42 0.57 0.85 1.17 1.52 1.88 1.97 1.99 2.01 1.97 1.83 1.71 1.71 1.75 1.93 2.03 1.99 2.07 2.04 1.85 1.95 1.95 1.63 1.39
0.37 0.36 0.33 0.30 0.28 0.21 0.15 0.12 0.09 0.07 0.07 0.08 0.09 0.10 0.14 0.14 0.13 0.11 0.09 0.09 0.11 0.12 0.12 0.18 0.24 0.39 0.67 1.01 1.33 1.53 1.82 1.95 2.02 1.98 1.99 2.01 1.97 1.87 1.89 1.99 2.15 2.16 2.22 2.28 2.34 2.28 2.33 2.11 1.76
0.33 0.26 0.22 0.20 0.21 0.17 0.13 0.14 0.10 0.09 0.12 0.13 0.14 0.15 0.18 0.18 0.15 0.13 0.10 0.07 0.08 0.09 0.11 0.14 0.20 0.40 0.74 1.08 1.34 1.59 1.94 2.05 2.03 2.07 2.06 2.08 2.10 2.06 2.13 2.14 2.24 2.27 2.27 2.34 2.44 2.40 2.47 2.51 2.15
0.25 0.18 0.14 0.12 0.12 0.11 0.07 0.09 0.09 0.11 0.17 0.23 0.24 0.23 0.23 0.21 0.15 0.13 0.11 0.09 0.10 0.10 0.13 0.20 0.34 0.52 0.78 0.99 1.24 1.60 1.86 1.99 2.14 2.09 2.07 2.08 2.15 2.17 2.20 2.26 2.41 2.39 2.35 2.32 2.52 2.55 2.62 2.54 2.46
0.15 0.11 0.10 0.10 0.11 0.11 0.05 0.09 0.17 0.19 0.19 0.22 0.23 0.23 0.23 0.20 0.17 0.17 0.16 0.16 0.16 0.18 0.24 0.33 0.49 0.64 0.85 1.02 1.22 1.41 1.67 1.82 1.97 2.07 2.02 2.03 2.09 2.20 2.09 2.02 2.14 2.20 2.23 2.22 2.38 2.53 2.65 2.62 2.64
0.07 0.11 0.18 0.19 0.22 0.17 0.09 0.18 0.31 0.24 0.19 0.19 0.20 0.21 0.23 0.25 0.26 0.30 0.31 0.34 0.41 0.44 0.48 0.56 0.65 0.76 0.87 0.97 1.07 1.13 1.31 1.48 1.54 1.72 1.81 1.94 1.96 2.02 2.05 1.95 1.94 1.96 1.92 1.95 2.06 2.11 2.18 2.32 2.45
0.04 0.07 0.18 0.24 0.22 0.20 0.19 0.37 0.41 0.28 0.23 0.23 0.23 0.25 0.29 0.37 0.43 0.53 0.61 0.69 0.76 0.75 0.74 0.81 0.86 0.84 0.83 0.88 0.94 0.97 1.04 1.13 1.22 1.27 1.32 1.51 1.68 1.72 1.80 1.80 1.74 1.78 1.83 1.84 1.90 1.90 1.90 1.92 1.98
0.03 0.05 0.09 0.16 0.15 0.15 0.21 0.43 0.45 0.32 0.31 0.31 0.32 0.34 0.42 0.61 0.71 0.81 0.91 0.92 0.93 0.90 0.86 0.86 0.89 0.86 0.84 0.84 0.84 0.80 0.80 0.87 0.98 1.01 1.09 1.16 1.26 1.28 1.34 1.44 1.51 1.60 1.65 1.71 1.84 1.89 1.88 1.83 1.80
0.04 0.08 0.14 0.27 0.36 0.32 0.33 0.48 0.52 0.44 0.39 0.37 0.41 0.49 0.65 0.91 1.06 1.19 1.27 1.17 1.10 1.09 1.13 1.02 0.93 0.86 0.82 0.82 0.82 0.76 0.73 0.78 0.82 0.83 0.90 0.89 0.91 0.94 1.00 1.11 1.28 1.50 1.62 1.65 1.72 1.76 1.83 1.85 1.79
0.10 0.16 0.25 0.38 0.47 0.60 0.71 0.85 0.69 0.59 0.58 0.66 0.75 0.83 1.00 1.26 1.43 1.52 1.53 1.43 1.23 1.10 1.10 1.04 0.93 0.82 0.72 0.71 0.76 0.76 0.71 0.73 0.77 0.77 0.73 0.67 0.70 0.78 0.89 0.95 1.09 1.24 1.42 1.60 1.74 1.74 1.73 1.75 1.74
0.22 0.37 0.50 0.76 0.75 0.68 0.88 1.09 0.84 0.69 0.71 0.74 0.80 0.92 1.10 1.22 1.30 1.34 1.30 1.29 1.18 1.08 1.00 0.95 0.85 0.71 0.65 0.70 0.73 0.75 0.67 0.62 0.65 0.66 0.68 0.59 0.56 0.62 0.71 0.84 1.05 1.16 1.24 1.29 1.37 1.44 1.47 1.48 1.51